Regional Weather Roundup
Issued by NWS

Home | Current Version | Previous Version | Graphics & Text | Print | Product List | Glossary On
Versions: 1 2 3 4 5 6 7 8 9 10 11 12 13 14 15 16 17 18 19 20 21 22 23 24 25 26 27 28
000
ASUS45 KBOI 241110
RWRID

IDAHO REGIONAL WEATHER ROUNDUP
NATIONAL WEATHER SERVICE BOISE ID
500 AM MDT SAT SEP 24 2016

NOTE: "FAIR" INDICATES FEW OR NO CLOUDS BELOW 12000 FEET
WITH NO SIGNIFICANT WEATHER AND/OR OBSTRUCTIONS TO VISIBILITY

IDZ012-014-241200-
SOUTHWEST IDAHO


CITY           SKY/WX    TMP DP  RH WIND       PRES   REMARKS
BOISE          CLEAR     51  42  71 NW9       30.17R
CALDWELL       CLEAR     51  42  71 SW6       30.19R
MOUNTAIN HOME  CLEAR     52  43  71 NW14      30.16R
$$

IDZ016-017-241200-
SOUTHCENTRAL IDAHO


CITY           SKY/WX    TMP DP  RH WIND       PRES   REMARKS
BURLEY         CLOUDY    48  41  76 W14G28    30.08R
JEROME         PTCLDY    48  42  80 SW20G30   30.11R
TWIN FALLS     PTCLDY    49  41  74 W21G30    30.13R
$$

IDZ019>023-241200-
SOUTHEAST IDAHO


CITY           SKY/WX    TMP DP  RH WIND       PRES   REMARKS
IDAHO FALLS    PTCLDY    43  40  89 S10       30.04F
POCATELLO      CLOUDY    45  44  97 S5        30.08R
REXBURG        CLOUDY    42  40  92 SW6       30.04S
$$

IDZ006-010-011-018-031-032-241200-
CENTRAL IDAHO MOUNTAINS


CITY           SKY/WX    TMP DP  RH WIND       PRES   REMARKS
MCCALL         MOCLDY    45  39  79 VRB3      30.18R
HAILEY         PTCLDY    43  36  75 NW5       30.11R
STANLEY          N/A     41  34  76 W3        30.18R
SALMON         CLOUDY    45  41  87 N3        30.13R
CHALLIS        MOCLDY    41  37  86 SW3       30.13R
$$

IDZ002-004-006-007-026-241200-
NORTHERN IDAHO


CITY           SKY/WX    TMP DP  RH WIND       PRES   REMARKS
LEWISTON       CLOUDY    54  44  69 CALM      30.19R
LOWELL           N/A     51  47  86 CALM      30.21R
COEUR D`ALENE  NOT AVBL
MULLAN PASS    FOG       37  37 100 NW5       30.16R VSB 1/4 WCI  33
$$




USA.gov is the U.S. government's official web portal to all federal, state and local government web resources and services.